TimeEST,TemperatureF,Dew PointF,Humidity,Sea Level PressureIn,VisibilityMPH,Wind Direction,Wind SpeedMPH,Gust SpeedMPH,PrecipitationIn,Events,Conditions,WindDirDegrees,DateUTC
12:15 AM,20.3,11.8,70,29.81,10.0,NW,16.1,25.3,N/A,Snow,Light Snow,320,2013-03-03 05:15:00
12:35 AM,20.3,11.3,68,29.80,10.0,WNW,17.3,26.5,N/A,Snow,Light Snow,300,2013-03-03 05:35:00
12:55 AM,19.9,11.1,69,29.80,10.0,NW,20.7,29.9,N/A,Snow,Light Snow,310,2013-03-03 05:55:00
1:15 AM,19.9,12.2,72,29.80,7.0,NW,16.1,23.0,N/A,Snow,Light Snow,320,2013-03-03 06:15:00
1:35 AM,20.1,12.2,71,29.81,7.0,NW,12.7,25.3,N/A,Snow,Light Snow,310,2013-03-03 06:35:00
2:15 AM,19.4,9.9,66,29.82,10.0,NW,11.5,19.6,N/A,Snow,Light Snow,310,2013-03-03 07:15:00
2:35 AM,19.4,8.6,63,29.80,10.0,NW,19.6,26.5,N/A,,Overcast,310,2013-03-03 07:35:00
2:55 AM,19.4,10.0,67,29.80,10.0,NW,13.8,20.7,N/A,Snow,Light Snow,310,2013-03-03 07:55:00
3:15 AM,19.4,11.3,71,29.80,7.0,NW,8.1,-,N/A,Snow,Light Snow,320,2013-03-03 08:15:00
3:55 AM,19.9,11.3,69,29.79,10.0,WNW,12.7,25.3,N/A,Snow,Light Snow,300,2013-03-03 08:55:00
4:15 AM,19.8,11.7,71,29.79,5.0,NNW,10.4,25.3,N/A,Snow,Light Snow,330,2013-03-03 09:15:00
4:35 AM,19.4,12.2,74,29.78,4.0,NNW,16.1,32.2,N/A,Snow,Light Snow,330,2013-03-03 09:35:00
4:55 AM,18.9,10.4,70,29.78,4.0,NW,20.7,29.9,N/A,Snow,Light Snow,310,2013-03-03 09:55:00
5:15 AM,18.9,8.2,63,29.79,10.0,NW,18.4,32.2,N/A,Snow,Light Snow,310,2013-03-03 10:15:00
5:35 AM,18.5,8.6,65,29.79,10.0,NW,17.3,26.5,N/A,Snow,Light Snow,320,2013-03-03 10:35:00
5:55 AM,18.5,9.5,68,29.79,5.0,NW,16.1,26.5,N/A,Snow,Light Snow,310,2013-03-03 10:55:00
6:15 AM,18.5,10.0,70,29.80,7.0,WNW,10.4,25.3,N/A,Snow,Light Snow,300,2013-03-03 11:15:00
6:55 AM,18.5,10.4,71,29.81,7.0,WNW,11.5,17.3,N/A,Snow,Light Snow,290,2013-03-03 11:55:00
7:15 AM,18.9,9.9,68,29.81,5.0,NW,11.5,23.0,N/A,Snow,Light Snow,310,2013-03-03 12:15:00
7:35 AM,18.9,10.0,69,29.82,5.0,NW,11.5,-,N/A,Snow,Light Snow,320,2013-03-03 12:35:00
8:15 AM,19.4,10.4,68,29.82,4.0,NW,10.4,24.2,N/A,Snow,Light Snow,320,2013-03-03 13:15:00
8:35 AM,19.0,10.9,71,29.83,3.0,WNW,15.0,21.9,N/A,Snow,Light Snow,300,2013-03-03 13:35:00
8:55 AM,18.7,10.4,70,29.83,2.5,NW,13.8,20.7,N/A,Snow,Light Snow,320,2013-03-03 13:55:00
9:15 AM,19.9,9.3,63,29.83,7.0,NW,13.8,25.3,N/A,Snow,Light Snow,310,2013-03-03 14:15:00
9:35 AM,19.9,10.0,65,29.84,5.0,NW,10.4,24.2,N/A,Snow,Light Snow,320,2013-03-03 14:35:00
9:55 AM,20.8,10.0,63,29.84,5.0,NW,11.5,23.0,N/A,Snow,Light Snow,320,2013-03-03 14:55:00
10:15 AM,21.4,10.6,63,29.83,7.0,NNW,10.4,20.7,N/A,Snow,Light Snow,330,2013-03-03 15:15:00
10:35 AM,21.2,10.4,63,29.83,10.0,NW,12.7,25.3,N/A,Snow,Light Snow,320,2013-03-03 15:35:00
10:55 AM,21.7,10.9,63,29.84,10.0,NNW,8.1,20.7,N/A,Snow,Light Snow,330,2013-03-03 15:55:00
11:15 AM,21.7,11.5,65,29.84,10.0,NNW,11.5,21.9,N/A,Snow,Light Snow,330,2013-03-03 16:15:00
11:35 AM,22.1,12.2,66,29.84,5.0,NW,11.5,25.3,N/A,Snow,Light Snow,320,2013-03-03 16:35:00
11:55 AM,22.1,11.5,64,29.83,7.0,NW,13.8,19.6,N/A,Snow,Light Snow,310,2013-03-03 16:55:00
12:15 PM,23.4,12.0,62,29.83,10.0,NW,6.9,24.2,N/A,Snow,Light Snow,320,2013-03-03 17:15:00
12:35 PM,23.2,10.8,59,29.82,10.0,West,16.1,25.3,N/A,Snow,Light Snow,280,2013-03-03 17:35:00
12:55 PM,24.1,11.3,58,29.82,7.0,NW,13.8,26.5,N/A,Snow,Light Snow,310,2013-03-03 17:55:00
1:15 PM,23.9,12.7,62,29.82,5.0,WNW,12.7,23.0,N/A,Snow,Light Snow,300,2013-03-03 18:15:00
1:35 PM,23.9,12.2,61,29.82,5.0,WNW,16.1,23.0,N/A,Snow,Light Snow,290,2013-03-03 18:35:00
1:55 PM,24.3,11.3,58,29.82,10.0,NW,9.2,18.4,N/A,,Overcast,320,2013-03-03 18:55:00
2:15 PM,24.4,10.9,57,29.81,10.0,NW,11.5,23.0,N/A,Snow,Light Snow,310,2013-03-03 19:15:00
2:35 PM,24.8,11.3,57,29.81,10.0,NNW,12.7,21.9,N/A,Snow,Light Snow,330,2013-03-03 19:35:00
2:55 PM,26.4,11.8,54,29.81,10.0,WNW,11.5,16.1,N/A,,Overcast,290,2013-03-03 19:55:00
3:15 PM,26.1,12.0,55,29.81,10.0,NW,9.2,20.7,N/A,Snow,Light Snow,310,2013-03-03 20:15:00
3:35 PM,26.2,12.7,57,29.81,10.0,NW,10.4,21.9,N/A,Snow,Light Snow,310,2013-03-03 20:35:00
3:55 PM,25.9,13.5,59,29.81,7.0,WNW,16.1,28.8,N/A,Snow,Light Snow,300,2013-03-03 20:55:00
4:15 PM,26.1,12.4,56,29.81,7.0,WNW,13.8,28.8,N/A,Snow,Light Snow,300,2013-03-03 21:15:00
4:35 PM,24.8,12.4,59,29.82,10.0,WNW,11.5,29.9,N/A,Snow,Light Snow,300,2013-03-03 21:35:00
4:55 PM,24.4,12.0,59,29.82,10.0,WNW,18.4,27.6,N/A,Snow,Light Snow,300,2013-03-03 21:55:00
5:15 PM,24.1,12.7,62,29.82,10.0,WNW,15.0,29.9,N/A,Snow,Light Snow,290,2013-03-03 22:15:00
5:55 PM,23.7,12.9,63,29.83,10.0,NNW,18.4,24.2,N/A,Snow,Light Snow,330,2013-03-03 22:55:00
6:15 PM,23.7,12.2,61,29.84,10.0,NW,15.0,21.9,N/A,Snow,Light Snow,310,2013-03-03 23:15:00
6:35 PM,23.5,12.7,63,29.84,10.0,NW,9.2,18.4,N/A,Snow,Light Snow,310,2013-03-03 23:35:00
6:55 PM,23.0,13.1,66,29.84,10.0,NW,6.9,23.0,N/A,Snow,Light Snow,320,2013-03-03 23:55:00
7:15 PM,22.6,13.1,67,29.85,10.0,NNW,11.5,18.4,N/A,Snow,Light Snow,330,2013-03-04 00:15:00
7:35 PM,22.3,12.9,67,29.86,10.0,NNW,11.5,18.4,N/A,Snow,Light Snow,330,2013-03-04 00:35:00
7:55 PM,22.1,12.2,66,29.86,10.0,NW,12.7,20.7,N/A,Snow,Light Snow,320,2013-03-04 00:55:00
8:15 PM,22.1,11.8,65,29.86,10.0,NW,17.3,26.5,N/A,Snow,Light Snow,320,2013-03-04 01:15:00
8:35 PM,21.9,11.7,65,29.86,10.0,NW,19.6,28.8,N/A,Snow,Light Snow,310,2013-03-04 01:35:00
9:15 PM,21.2,9.3,60,29.87,10.0,NW,10.4,28.8,N/A,Snow,Light Snow,310,2013-03-04 02:15:00
9:35 PM,21.2,8.6,58,29.87,10.0,NW,17.3,39.1,N/A,Snow,Light Snow,320,2013-03-04 02:35:00
9:55 PM,21.2,10.0,62,29.87,10.0,NW,13.8,25.3,N/A,Snow,Light Snow,320,2013-03-04 02:55:00
10:15 PM,21.2,11.1,65,29.87,10.0,NW,9.2,21.9,N/A,Snow,Light Snow,320,2013-03-04 03:15:00
10:35 PM,21.4,11.5,66,29.87,7.0,NW,12.7,31.1,N/A,Snow,Light Snow,320,2013-03-04 03:35:00
10:55 PM,21.2,11.3,66,29.87,7.0,NNW,17.3,28.8,N/A,Snow,Light Snow,340,2013-03-04 03:55:00
11:15 PM,21.2,10.8,64,29.86,7.0,NW,12.7,28.8,N/A,Snow,Light Snow,310,2013-03-04 04:15:00
11:35 PM,21.2,10.4,63,29.86,10.0,NW,17.3,35.7,N/A,Snow,Light Snow,310,2013-03-04 04:35:00
11:55 PM,20.8,9.5,62,29.85,10.0,WNW,19.6,33.4,N/A,Snow,Light Snow,300,2013-03-04 04:55:00